User: anonymous   Login
Location: Unspecified
(0.0000°N, 0.0000°E)
Time: 07:54:01
(UTC+00:00)
Language:

GONETS M 09 (M19) - Orbit

View from above orbital plane
View from above orbital plane
View from above satellite
View from above satellite

Ground track
Ground track

The orbit data is extracted from the following two-line orbital elements,

1 40062U 14036B   17328.43619376 -.00000005 +00000-0 -11209-3 0  9999
2 40062 082.5099 089.5943 0022990 132.6195 227.6828 12.42887914154027
Epoch (UTC): 24 November 2017 10:28:07
Eccentricity: 0.0022990
inclination: 82.5099°
perigee height: 1476 km
apogee height: 1512 km
right ascension of ascending node: 89.5943°
argument of perigee: 132.6195°
revolutions per day: 12.42887914
mean anomaly at epoch: 227.6828°
orbit number at epoch: 15402

The dashed part of the orbit path shows where the satellite is in the earth's shadow,  

DLR